Weather in Berezovka

Russia / Ulyanovsk Oblast     54°03′08″N   47°37′16″E
temp.,
°C
wind,
m/s
gust,
m/s
humid.,
%
clouds,
%
prec.,
mm/h
press.,
hPa
HPBL,
m
19 january, tue
tue1901:00−20nne2299100 0.4 1019137
04:00−20nne1299100 0.9 101842
07:00−21n1298100 0.2 101763
10:00−20nnw2297100 0.3 101791
13:00−18wnw2393100 0.1 1017264
16:00−20nw349798 0.1 101586
19:00−22wnw229971 0.0 101720
22:00−23w239885 0.0 101621
20 january, wed
wed2001:00−23w339782 0.0 101736
04:00−24w339860 0.0 101725
07:00−24wsw339968 0.0 101730
10:00−23w359875 0.0 101885
13:00−18w369469 0.0 1019266
16:00−18w349576 0.0 101991
19:00−20w359796 0.0 102189
22:00−19w479798 0.0 1021140
21 january, thu
thu2101:00−19w4797100 0.0 1022133
04:00−19w479895 0.0 1022119
07:00−19w499896 0.0 1023154
10:00−18w4109793 0.1 1024219
13:00−14w589496 0.0 1023271
16:00−13wsw599398 0.0 1022273
19:00−13sw51290100 0.0 1022284
22:00−13sw71484100 0.0 1019395
22 january, fri
fri2201:00−10sw91792100 0.4 1015632
04:00−10wsw81592100 1.3 1014644
07:00−8w71493100 0.8 1012631
10:00−4w71594100 1.6 1012712
13:000w81398100 1.1 1011825
16:00+1wnw71398100 1.4 1012706
19:00+1w51198100 0.0 1013512
22:00+1w61198100 0.1 1014513
23 january, sat
sat2301:00+1w41195100 0.0 1015549
04:000wsw51194100 0.0 1016464
07:00+1wsw51292100 0.0 1017592
10:00+1wsw51294100 0.0 1017557
13:00+1sw61396100 0.0 1017508
16:00+1wsw51296100 0.0 1018561
19:00+1sw41094100 0.0 1019381
22:00+1sw4109799 0.0 1019364